Powrót do katalogu

CZ-3C DEB

LostGTO
NORAD 40824·DEBRIS·🇨🇳 China

Wystrzelony Oct 31, 2010 z Xichang Satellite Launch Center

Loading…

TLE

NieaktualneSource: Space-Track

Epoka: Apr 25, 2017, 04:30 UTC

1 40824U 10057AR  17115.18755859  .00000770  00000-0  12337-1 0  9995
2 40824  19.3558 171.3014 7181525 252.2751  23.0491  2.22072289891642

Śledź CZ-3C DEB w czasie rzeczywistym z AllMySat

Download on the App Store